EW1613 Weather Reports


Display with metric or nautical units.
time (UTC)temp
F
wind
direction
speed
MPH
gust
MPH
rain 1hr
in
rain 24hr
in
rain mn
in
humidity
%
barometer
mb
20260831015553 73 269 0.0 0.0 0.00 0.00 0.00 74 1014.3
20260831015114 73 269 0.0 0.0 0.00 0.00 0.00 74 1014.4
20260831014547 73 269 0.0 0.0 0.00 0.00 0.00 73 1014.3
20260831014108 73 269 0.0 0.0 0.00 0.00 0.00 74 1014.3
20260831013608 73 269 0.0 0.0 0.00 0.00 0.00 74 1014.3
20260831013042 73 269 0.0 0.0 0.00 0.00 0.00 74 1014.4
20260831012604 73 269 0.0 0.0 0.00 0.00 0.00 75 1014.4
20260831012057 73 269 0.0 0.0 0.00 0.00 0.00 75 1014.4
20260831011551 73 269 0.0 0.0 0.00 0.00 0.00 75 1014.4
20260831011113 73 269 0.0 0.0 0.00 0.00 0.00 76 1014.4
20260831010552 73 269 0.0 0.0 0.00 0.00 0.00 76 1014.5
20260831010045 73 269 0.0 0.0 0.00 0.00 0.00 76 1014.5
20260831005545 73 269 0.0 0.0 0.00 0.00 0.00 76 1014.5
20260831005046 73 269 0.0 0.0 0.00 0.00 0.00 76 1014.5
20260831004608 73 269 0.0 0.0 0.00 0.00 0.00 76 1014.5
20260831004121 73 269 0.0 1.0 0.00 0.00 0.00 76 1014.5
20260831003601 73 269 0.0 1.0 0.00 0.00 0.00 76 1014.6
20260831003054 72 268 0.0 0.0 0.00 0.00 0.00 77 1014.5
20260831002555 72 268 0.0 0.0 0.00 0.00 0.00 77 1014.6
20260831002050 72 268 0.0 0.0 0.00 0.00 0.00 77 1014.5
20260831001551 72 268 0.0 0.0 0.00 0.00 0.00 77 1014.6
20260831001044 72 269 0.0 0.0 0.00 0.00 0.00 77 1014.6
20260831000605 72 269 0.0 0.0 0.00 0.00 0.00 78 1014.6
20260831000100 72 269 0.0 2.0 0.00 0.00 0.00 78 1014.7
20260830235600 72 269 0.0 2.0 0.00 0.00 0.00 78 1014.7
20260830235121 73 268 0.0 0.0 0.00 0.00 0.00 78 1014.7
20260830234554 73 267 0.0 0.0 0.00 0.00 0.00 78 1014.7
20260830234054 73 267 0.0 0.0 0.00 0.00 0.00 78 1014.7
20260830233606 73 267 0.0 0.0 0.00 0.00 0.00 77 1014.7
20260830233045 73 267 0.0 0.0 0.00 0.00 0.00 77 1014.7
20260830232606 73 267 0.0 3.0 0.00 0.00 0.00 77 1014.7
20260830232108 73 267 1.0 3.0 0.00 0.00 0.00 77 1014.7
20260830231601 73 280 0.0 2.0 0.00 0.00 0.00 77 1014.7
20260830231054 74 309 0.0 2.0 0.00 0.00 0.00 77 1014.7
20260830230554 74 309 0.0 1.0 0.00 0.00 0.00 76 1014.8
20260830230115 74 310 0.0 1.0 0.00 0.00 0.00 76 1014.7
20260830225548 74 310 0.0 2.0 0.00 0.00 0.00 75 1014.8
20260830225107 74 310 0.0 2.0 0.00 0.00 0.00 75 1014.8
20260830224606 74 310 0.0 3.0 0.00 0.00 0.00 74 1014.8
20260830224120 74 309 1.0 3.0 0.00 0.00 0.00 74 1014.8
20260830223600 74 308 0.0 1.0 0.00 0.00 0.00 74 1014.8
20260830223121 74 308 0.0 2.0 0.00 0.00 0.00 74 1014.8
20260830222554 75 308 0.0 2.0 0.00 0.00 0.00 74 1014.7
20260830222054 75 308 1.0 2.0 0.00 0.00 0.00 74 1014.8
20260830221548 75 308 0.0 0.0 0.00 0.00 0.00 75 1014.8
20260830221052 75 308 0.0 0.0 0.00 0.00 0.00 75 1014.8
20260830220544 75 308 0.0 0.0 0.00 0.00 0.00 74 1014.7
20260830220044 75 308 0.0 0.0 0.00 0.00 0.00 74 1014.7
20260830215605 75 308 0.0 0.0 0.00 0.00 0.00 75 1014.8
20260830215059 75 308 0.0 0.0 0.00 0.00 0.00 75 1014.8
20260830214602 76 308 0.0 0.0 0.00 0.00 0.00 74 1014.7
20260830214054 76 308 0.0 0.0 0.00 0.00 0.00 74 1014.7
20260830213548 76 308 0.0 0.0 0.00 0.00 0.00 74 1014.7
20260830213048 76 308 0.0 0.0 0.00 0.00 0.00 74 1014.7
20260830212542 76 308 0.0 0.0 0.00 0.00 0.00 74 1014.6
20260830212044 76 308 0.0 1.0 0.00 0.00 0.00 73 1014.7
20260830211543 76 308 0.0 0.0 0.00 0.00 0.00 73 1014.6
20260830211057 76 303 0.0 3.0 0.00 0.00 0.00 72 1014.6
20260830210557 77 303 1.0 8.0 0.00 0.00 0.00 72 1014.5
20260830210051 77 301 0.0 8.0 0.00 0.00 0.00 71 1014.5
20260830205552 78 247 0.0 3.0 0.00 0.00 0.00 70 1014.4
20260830205046 78 163 0.0 0.0 0.00 0.00 0.00 68 1014.4
20260830204607 78 163 0.0 0.0 0.00 0.00 0.00 69 1014.3
20260830204101 78 163 0.0 0.0 0.00 0.00 0.00 69 1014.3
20260830203552 78 163 0.0 0.0 0.00 0.00 0.00 68 1014.3
20260830203053 78 163 0.0 0.0 0.00 0.00 0.00 68 1014.3
20260830202547 79 163 0.0 0.0 0.00 0.00 0.00 68 1014.4
20260830202047 79 163 0.0 0.0 0.00 0.00 0.00 67 1014.3
20260830201608 79 163 0.0 1.0 0.00 0.00 0.00 67 1014.3
20260830201101 79 163 0.0 0.0 0.00 0.00 0.00 66 1014.3
20260830200603 79 163 0.0 0.0 0.00 0.00 0.00 66 1014.2
20260830200057 80 163 0.0 1.0 0.00 0.00 0.00 66 1014.2
20260830195551 80 163 0.0 1.0 0.00 0.00 0.00 65 1014.2
20260830195052 80 163 0.0 1.0 0.00 0.00 0.00 65 1014.3
20260830194543 80 163 0.0 1.0 0.00 0.00 0.00 64 1014.2
20260830194044 81 163 0.0 1.0 0.00 0.00 0.00 64 1014.2
20260830193605 81 163 0.0 0.0 0.00 0.00 0.00 64 1014.2
20260830193057 81 163 0.0 2.0 0.00 0.00 0.00 64 1014.2
20260830192555 81 163 1.0 2.0 0.00 0.00 0.00 63 1014.2
20260830192057 82 163 0.0 0.0 0.00 0.00 0.00 63 1014.2
20260830191551 82 163 0.0 0.0 0.00 0.00 0.00 62 1014.1
20260830191054 82 163 0.0 2.0 0.00 0.00 0.00 62 1014.1
20260830190546 82 163 1.0 2.0 0.00 0.00 0.00 62 1014.1
20260830190107 82 163 0.0 3.0 0.00 0.00 0.00 61 1014.1
20260830185601 83 163 0.0 3.0 0.00 0.00 0.00 61 1014.1
20260830185042 83 162 1.0 4.0 0.00 0.00 0.00 61 1014.1
20260830184603 83 161 1.0 3.0 0.00 0.00 0.00 60 1014.0
20260830184056 83 160 1.0 3.0 0.00 0.00 0.00 59 1014.0
20260830183550 84 157 1.0 2.0 0.00 0.00 0.00 58 1013.9
20260830183051 84 157 0.0 2.0 0.00 0.00 0.00 58 1013.9
20260830182544 84 157 0.0 2.0 0.00 0.00 0.00 58 1013.8
20260830182044 85 157 0.0 3.0 0.00 0.00 0.00 57 1013.7
20260830181606 85 161 1.0 4.0 0.00 0.00 0.00 56 1013.7
20260830181058 85 159 0.0 3.0 0.00 0.00 0.00 56 1013.6
20260830180558 85 159 1.0 3.0 0.00 0.00 0.00 55 1013.5
20260830180052 86 161 0.0 2.0 0.00 0.00 0.00 55 1013.5
20260830175553 86 160 0.0 1.0 0.00 0.00 0.00 54 1013.5
20260830175107 86 160 0.0 1.0 0.00 0.00 0.00 54 1013.4
20260830174546 87 160 0.0 3.0 0.00 0.00 0.00 53 1013.4
20260830174047 87 160 1.0 3.0 0.00 0.00 0.00 52 1013.3
20260830173601 87 161 0.0 4.0 0.00 0.00 0.00 52 1013.3
20260830173056 88 162 0.0 2.0 0.00 0.00 0.00 52 1013.3
20260830172558 88 162 0.0 3.0 0.00 0.00 0.00 51 1013.3
20260830172051 88 161 1.0 3.0 0.00 0.00 0.00 51 1013.3
20260830171552 88 160 1.0 3.0 0.00 0.00 0.00 50 1013.3
20260830171046 88 159 2.0 3.0 0.00 0.00 0.00 49 1013.3
20260830170607 88 166 2.0 4.0 0.00 0.00 0.00 49 1013.3
20260830170106 89 183 1.0 5.0 0.00 0.00 0.00 49 1013.4
20260830165600 89 190 3.0 5.0 0.00 0.00 0.00 49 1013.4
20260830165121 89 183 3.0 5.0 0.00 0.00 0.00 49 1013.4
20260830164600 89 175 1.0 4.0 0.00 0.00 0.00 48 1013.4
20260830164054 90 178 2.0 4.0 0.00 0.00 0.00 48 1013.4
20260830163614 90 180 2.0 5.0 0.00 0.00 0.00 48 1013.5
20260830163046 90 200 2.0 5.0 0.00 0.00 0.00 47 1013.5
20260830162547 90 168 4.0 5.0 0.00 0.00 0.00 46 1013.5
20260830162108 90 175 3.0 6.0 0.00 0.00 0.00 46 1013.5
20260830161600 90 211 3.0 6.0 0.00 0.00 0.00 46 1013.6
20260830161101 90 166 2.0 5.0 0.00 0.00 0.00 46 1013.5
20260830160555 90 173 3.0 6.0 0.00 0.00 0.00 46 1013.6
20260830160056 91 202 3.0 7.0 0.00 0.00 0.00 46 1013.6
20260830155550 91 183 4.0 7.0 0.00 0.00 0.00 46 1013.6
20260830155051 91 200 3.0 6.0 0.00 0.00 0.00 46 1013.6
20260830154544 91 157 1.0 7.0 0.00 0.00 0.00 45 1013.6
20260830154105 91 143 2.0 9.0 0.00 0.00 0.00 45 1013.7
20260830153605 91 113 4.0 9.0 0.00 0.00 0.00 45 1013.7
20260830153059 91 203 1.0 6.0 0.00 0.00 0.00 45 1013.7
20260830152553 91 213 2.0 7.0 0.00 0.00 0.00 44 1013.7
20260830152054 91 193 1.0 7.0 0.00 0.00 0.00 44 1013.7
20260830151615 91 50 2.0 5.0 0.00 0.00 0.00 44 1013.7
20260830151048 92 80 2.0 4.0 0.00 0.00 0.00 43 1013.7
20260830150548 93 173 2.0 4.0 0.00 0.00 0.00 44 1013.7
20260830150041 93 166 1.0 5.0 0.00 0.00 0.00 45 1013.7
20260830145543 93 196 2.0 6.0 0.00 0.00 0.00 44 1013.7
20260830145123 92 221 1.0 4.0 0.00 0.00 0.00 44 1013.7
20260830144555 92 145 1.0 4.0 0.00 0.00 0.00 44 1013.8
20260830144051 92 133 1.0 7.0 0.00 0.00 0.00 45 1013.8
20260830143545 91 140 3.0 7.0 0.00 0.00 0.00 45 1013.8
20260830143047 91 148 2.0 5.0 0.00 0.00 0.00 46 1013.8
20260830142541 91 161 2.0 5.0 0.00 0.00 0.00 46 1013.8
20260830142103 91 57 3.0 5.0 0.00 0.00 0.00 44 1013.9
20260830141541 91 46 3.0 6.0 0.00 0.00 0.00 44 1013.9
20260830141042 91 86 2.0 6.0 0.00 0.00 0.00 43 1013.9
20260830140604 91 95 2.0 5.0 0.00 0.00 0.00 43 1014.0
20260830140056 91 82 2.0 5.0 0.00 0.00 0.00 43 1014.0
20260830135550 91 71 1.0 5.0 0.00 0.00 0.00 45 1014.0
20260830135051 91 130 3.0 6.0 0.00 0.00 0.00 44 1014.1
20260830134545 91 119 1.0 4.0 0.00 0.00 0.00 45 1014.1
20260830134046 90 65 0.0 4.0 0.00 0.00 0.00 45 1014.1
20260830133600 91 76 1.0 4.0 0.00 0.00 0.00 46 1014.2
20260830133100 90 90 2.0 4.0 0.00 0.00 0.00 46 1014.3
20260830132601 90 68 1.0 4.0 0.00 0.00 0.00 46 1014.3
20260830132054 90 88 2.0 5.0 0.00 0.00 0.00 47 1014.4
20260830131615 90 51 0.0 4.0 0.00 0.00 0.00 47 1014.4
20260830131053 90 59 1.0 4.0 0.00 0.00 0.00 47 1014.4
20260830130547 89 89 2.0 4.0 0.00 0.00 0.00 48 1014.5
20260830130047 90 67 2.0 6.0 0.00 0.00 0.00 48 1014.5
20260830125608 90 40 2.0 6.0 0.00 0.00 0.00 47 1014.5
20260830125108 91 36 2.0 5.0 0.00 0.00 0.00 48 1014.5
20260830124542 91 57 1.0 4.0 0.00 0.00 0.00 47 1014.6
20260830124103 90 252 1.0 4.0 0.00 0.00 0.00 46 1014.6
20260830123556 90 77 0.0 5.0 0.00 0.00 0.00 46 1014.7
20260830123050 90 355 2.0 5.0 0.00 0.00 0.00 46 1014.6
20260830122550 90 66 2.0 5.0 0.00 0.00 0.00 46 1014.6
20260830122044 89 140 0.0 9.0 0.00 0.00 0.00 48 1014.6
20260830121544 89 61 5.0 9.0 0.00 0.00 0.00 48 1014.7
20260830121045 89 49 1.0 8.0 0.00 0.00 0.00 48 1014.7
20260830120554 89 35 3.0 6.0 0.00 0.00 0.00 48 1014.7
20260830120055 89 29 2.0 6.0 0.00 0.00 0.00 46 1014.7
20260830115616 89 36 2.0 4.0 0.00 0.00 0.00 46 1014.8
20260830115050 89 34 1.0 6.0 0.00 0.00 0.00 48 1014.7
20260830114551 89 41 2.0 6.0 0.00 0.00 0.00 47 1014.8
20260830114044 89 14 2.0 5.0 0.00 0.00 0.00 49 1014.8
20260830113544 89 24 3.0 5.0 0.00 0.00 0.00 48 1014.8
20260830113106 90 61 2.0 5.0 0.00 0.00 0.00 47 1014.8
20260830112619 90 156 1.0 3.0 0.00 0.00 0.00 48 1014.8
20260830112058 88 340 0.0 4.0 0.00 0.00 0.00 50 1014.8
20260830111618 88 338 1.0 6.0 0.00 0.00 0.00 51 1014.9
20260830111051 87 350 2.0 6.0 0.00 0.00 0.00 51 1014.9
20260830110551 87 80 3.0 6.0 0.00 0.00 0.00 52 1014.9
20260830110045 87 94 2.0 4.0 0.00 0.00 0.00 51 1014.9
20260830105546 87 65 1.0 5.0 0.00 0.00 0.00 51 1014.9
20260830105059 87 52 2.0 6.0 0.00 0.00 0.00 53 1014.9
20260830104600 87 65 2.0 8.0 0.00 0.00 0.00 52 1014.9
20260830104054 87 54 2.0 5.0 0.00 0.00 0.00 53 1014.9
20260830103554 86 62 0.0 6.0 0.00 0.00 0.00 54 1015.1
20260830103055 86 40 2.0 6.0 0.00 0.00 0.00 54 1015.1
20260830102549 86 46 1.0 9.0 0.00 0.00 0.00 54 1015.2
20260830102043 86 40 4.0 9.0 0.00 0.00 0.00 54 1015.2
20260830101544 86 65 2.0 7.0 0.00 0.00 0.00 56 1015.3
20260830101104 86 41 2.0 6.0 0.00 0.00 0.00 55 1015.3
20260830100558 85 18 1.0 6.0 0.00 0.00 0.00 56 1015.4
20260830100059 85 34 4.0 6.0 0.00 0.00 0.00 55 1015.4
20260830095553 85 77 3.0 6.0 0.00 0.00 0.00 54 1015.5
20260830095047 85 45 3.0 6.0 0.00 0.00 0.00 55 1015.5
20260830094548 85 17 3.0 8.0 0.00 0.00 0.00 55 1015.6
20260830094042 85 339 2.0 8.0 0.00 0.00 0.00 55 1015.6
20260830093543 85 20 1.0 5.0 0.00 0.00 0.00 55 1015.7
20260830093103 84 54 2.0 8.0 0.00 0.00 0.00 56 1015.7
20260830092556 84 42 3.0 8.0 0.00 0.00 0.00 55 1015.7
20260830092057 84 74 1.0 5.0 0.00 0.00 0.00 56 1015.8
20260830091618 84 83 3.0 6.0 0.00 0.00 0.00 55 1015.8
20260830091045 84 79 2.0 8.0 0.00 0.00 0.00 56 1015.8
20260830090545 84 28 4.0 8.0 0.00 0.00 0.00 56 1015.8
20260830090106 83 32 1.0 6.0 0.00 0.00 0.00 57 1015.8
20260830085600 83 16 3.0 6.0 0.00 0.04 0.00 57 1015.9
20260830085054 83 55 2.0 6.0 0.00 0.04 0.00 57 1015.9
20260830084556 83 350 2.0 6.0 0.00 0.04 0.00 57 1015.9
20260830084049 83 355 1.0 6.0 0.00 0.04 0.00 58 1015.9
20260830083550 83 57 3.0 6.0 0.00 0.04 0.00 58 1015.9
20260830083044 82 42 1.0 4.0 0.00 0.04 0.00 60 1015.9
20260830082545 82 5 1.0 6.0 0.00 0.04 0.00 60 1015.9
20260830082059 82 14 4.0 6.0 0.00 0.04 0.00 60 1015.8
20260830081619 81 35 3.0 7.0 0.00 0.04 0.00 60 1015.8
20260830081057 81 37 3.0 7.0 0.00 0.04 0.00 61 1015.8
20260830080549 81 16 3.0 8.0 0.00 0.04 0.00 62 1015.8
20260830080050 81 40 3.0 8.0 0.00 0.04 0.00 62 1015.8
20260830075544 80 15 1.0 5.0 0.00 0.04 0.00 64 1015.7
20260830075045 80 30 2.0 6.0 0.00 0.04 0.00 64 1015.8
20260830074607 80 49 2.0 5.0 0.00 0.04 0.00 63 1015.8
20260830074049 80 30 2.0 4.0 0.00 0.04 0.00 66 1015.8
20260830073541 80 32 1.0 4.0 0.00 0.04 0.00 65 1015.7
20260830073102 80 24 1.0 3.0 0.00 0.04 0.00 69 1015.6
20260830072602 79 27 2.0 3.0 0.00 0.04 0.00 68 1015.6
20260830072055 79 13 1.0 2.0 0.00 0.04 0.00 70 1015.6
20260830071616 78 16 0.0 3.0 0.00 0.04 0.00 73 1015.6
20260830071049 77 16 1.0 3.0 0.00 0.04 0.00 74 1015.6
20260830070547 77 327 1.0 3.0 0.00 0.04 0.00 75 1015.5
20260830070100 76 326 1.0 4.0 0.00 0.04 0.00 75 1015.5
20260830065600 76 329 1.0 3.0 0.00 0.04 0.00 76 1015.5
20260830065100 76 331 0.0 3.0 0.00 0.04 0.00 77 1015.5
20260830064554 75 331 1.0 3.0 0.00 0.04 0.00 78 1015.4
20260830064055 75 331 0.0 3.0 0.00 0.04 0.00 79 1015.4
20260830063549 74 331 0.0 3.0 0.00 0.04 0.00 79 1015.5
20260830063111 73 327 0.0 3.0 0.00 0.04 0.00 80 1015.5
20260830062542 73 327 2.0 3.0 0.00 0.04 0.00 81 1015.4
20260830062044 72 327 1.0 2.0 0.00 0.04 0.00 83 1015.4
20260830061553 72 327 0.0 0.0 0.00 0.04 0.00 83 1015.4
20260830061055 71 327 0.0 2.0 0.00 0.04 0.00 83 1015.5
20260830060549 71 327 1.0 3.0 0.00 0.04 0.00 84 1015.5
20260830060050 70 327 2.0 3.0 0.00 0.04 0.00 84 1015.6
20260830055543 70 327 1.0 3.0 0.00 0.04 0.00 84 1015.6
20260830055043 70 327 1.0 3.0 0.00 0.04 0.00 85 1015.5
20260830054604 70 327 2.0 3.0 0.00 0.04 0.00 85 1015.5
20260830054124 70 327 1.0 3.0 0.00 0.04 0.00 85 1015.5
20260830053557 69 327 1.0 3.0 0.00 0.04 0.00 85 1015.5
20260830053048 69 327 1.0 3.0 0.00 0.04 0.00 85 1015.4
20260830052549 69 327 1.0 3.0 0.00 0.04 0.00 85 1015.4
20260830052042 69 327 1.0 3.0 0.00 0.04 0.00 85 1015.3
20260830051543 69 327 0.0 3.0 0.00 0.04 0.00 85 1015.2
20260830051104 69 327 1.0 3.0 0.00 0.04 0.00 86 1015.2
20260830050558 69 327 2.0 4.0 0.00 0.04 0.00 86 1015.2
20260830050052 69 327 2.0 4.0 0.00 0.04 0.00 86 1015.2
20260830045554 68 331 0.0 3.0 0.00 0.04 0.00 86 1015.2
20260830045047 68 331 1.0 3.0 0.00 0.04 0.00 86 1015.1
20260830044548 68 332 1.0 3.0 0.00 0.04 0.00 86 1015.1
20260830044042 68 332 1.0 2.0 0.00 0.04 0.00 86 1015.1
20260830043603 69 332 0.0 1.0 0.00 0.04 0.00 86 1015.1
20260830043102 69 332 0.0 3.0 0.00 0.04 0.00 85 1015.0
20260830042556 69 332 1.0 3.0 0.00 0.04 0.00 85 1015.1
20260830042117 69 332 2.0 3.0 0.00 0.04 0.00 85 1015.1
20260830041559 69 333 0.0 4.0 0.00 0.04 0.00 85 1015.1
20260830041052 69 333 2.0 4.0 0.00 0.04 0.00 85 1015.0
20260830040613 69 336 0.0 2.0 0.00 0.04 0.00 84 1015.0
20260830040046 69 336 1.0 2.0 0.00 0.04 0.00 84 1014.9
20260830035547 69 336 0.0 1.0 0.00 0.04 0.00 84 1014.9
20260830035127 69 336 0.0 1.0 0.00 0.04 0.00 84 1014.7
20260830034559 69 336 0.0 1.0 0.00 0.04 0.00 83 1014.8
20260830034101 69 336 0.0 1.0 0.00 0.04 0.00 83 1014.8
20260830033622 70 336 0.0 2.0 0.00 0.04 0.00 83 1014.9
20260830033054 70 336 1.0 2.0 0.00 0.04 0.00 83 1014.8
20260830032548 70 336 0.0 0.0 0.00 0.04 0.00 82 1014.8
20260830032048 70 336 0.0 0.0 0.00 0.04 0.00 82 1014.9
20260830031610 70 336 0.0 1.0 0.00 0.04 0.00 81 1014.8
20260830031125 70 336 0.0 1.0 0.00 0.04 0.00 81 1014.8
20260830030604 70 336 0.0 0.0 0.00 0.04 0.00 81 1014.8
20260830030057 70 336 0.0 0.0 0.00 0.04 0.00 80 1014.8
20260830025551 70 336 0.0 2.0 0.00 0.04 0.00 80 1014.8
20260830025051 70 336 1.0 2.0 0.00 0.04 0.00 80 1014.8
20260830024551 70 336 0.0 0.0 0.00 0.04 0.00 80 1014.8
20260830024051 70 336 0.0 0.0 0.00 0.04 0.00 80 1014.8
20260830023543 70 336 0.0 0.0 0.00 0.04 0.00 80 1014.8
20260830023104 70 336 0.0 1.0 0.00 0.04 0.00 80 1014.9
20260830022558 70 336 0.0 1.0 0.00 0.04 0.00 80 1014.9
20260830022059 70 336 0.0 1.0 0.00 0.04 0.00 80 1014.9
20260830021552 70 336 0.0 1.0 0.00 0.04 0.00 80 1015.0
20260830021113 70 336 0.0 2.0 0.00 0.04 0.00 80 1015.0
20260830020546 70 336 0.0 2.0 0.00 0.04 0.00 80 1015.1
20260830020047 70 336 1.0 3.0 0.00 0.04 0.00 80 1015.1